Location: American Medical Response
(33.3472°N, 96.5511°W)
Time: 19:50:15
(UTC+00:00)

Lacrosse 5 rocket - Pass Details

Date: 05 July 2022
Orbit: 456 x 628 km, 57.0° (Epoch: 08 August)

Event Time Altitude Azimuth Distance (km) Brightness Sun altitude
Rises 02:46:05 0° 323° (NW) 2,592 6.4 -12.5°
Reaches altitude 10° 02:48:13 10° 326° (NW) 1,733 5.1 -12.8°
Maximum altitude 02:52:07 71° 50° (NE) 566 1.3 -13.4°
Enters shadow 02:54:32 23° 131° (SE) 1,174 2.4 -13.8°
